Time,TemperatureF,DewpointF,PressureIn,WindDirection,WindDirectionDegrees,WindSpeedMPH,WindSpeedGustMPH,Humidity,HourlyPrecipIn,Conditions,Clouds,dailyrainin,SoftwareType,DateUTC
2013-01-23 00:02:00,25.8,3.1,30.21,West,276,0.0,0.0,37,0.00,,---,0.00,VWS V14.01,2013-01-23 05:02:00,
2013-01-23 00:03:00,25.7,4.2,30.21,West,276,0.0,0.0,39,0.00,,---,0.00,VWS V14.01,2013-01-23 05:03:00,
2013-01-23 00:04:00,25.6,3.5,30.21,West,276,0.0,0.0,38,0.00,,---,0.00,VWS V14.01,2013-01-23 05:04:00,
2013-01-23 00:09:00,25.2,4.3,30.21,West,276,1.0,2.0,40,0.00,,---,0.00,VWS V14.01,2013-01-23 05:09:00,
2013-01-23 00:14:00,25.1,3.6,30.21,West,276,0.0,3.0,39,0.00,,---,0.00,VWS V14.01,2013-01-23 05:14:00,
2013-01-23 00:19:00,25.2,3.2,30.21,West,276,0.0,3.0,38,0.00,,---,0.00,VWS V14.01,2013-01-23 05:19:00,
2013-01-23 00:25:00,25.3,3.3,30.21,West,276,0.0,1.0,38,0.00,,---,0.00,VWS V14.01,2013-01-23 05:25:00,
2013-01-23 00:29:00,25.2,2.6,30.21,West,276,0.0,1.0,37,0.00,,---,0.00,VWS V14.01,2013-01-23 05:29:00,
2013-01-23 00:35:00,25.1,3.1,30.21,West,276,0.0,1.0,38,0.00,,---,0.00,VWS V14.01,2013-01-23 05:35:00,
2013-01-23 00:40:00,24.9,2.9,30.21,West,276,0.0,0.0,38,0.00,,---,0.00,VWS V14.01,2013-01-23 05:40:00,
2013-01-23 00:45:00,24.7,3.3,30.20,West,276,0.0,0.0,39,0.00,,---,0.00,VWS V14.01,2013-01-23 05:45:00,
2013-01-23 00:50:00,24.4,5.1,30.20,West,276,0.0,0.0,43,0.00,,---,0.00,VWS V14.01,2013-01-23 05:50:00,
2013-01-23 00:55:00,24.1,6.3,30.20,West,276,0.0,1.0,46,0.00,,---,0.00,VWS V14.01,2013-01-23 05:55:00,
2013-01-23 01:00:00,23.8,4.1,30.22,West,276,0.0,0.0,42,0.00,,---,0.00,VWS V14.01,2013-01-23 06:00:00,
2013-01-23 01:05:00,23.7,5.0,30.22,West,276,0.0,0.0,44,0.00,,---,0.00,VWS V14.01,2013-01-23 06:05:00,
2013-01-23 01:10:00,23.8,6.1,30.22,West,276,0.0,0.0,46,0.00,,---,0.00,VWS V14.01,2013-01-23 06:10:00,
2013-01-23 01:15:00,23.8,6.1,30.22,West,276,0.0,2.0,46,0.00,,---,0.00,VWS V14.01,2013-01-23 06:15:00,
2013-01-23 01:20:00,23.6,5.9,30.22,West,276,0.0,0.0,46,0.00,,---,0.00,VWS V14.01,2013-01-23 06:20:00,
2013-01-23 01:25:00,23.5,6.2,30.22,West,276,0.0,2.0,47,0.00,,---,0.00,VWS V14.01,2013-01-23 06:25:00,
2013-01-23 01:30:00,23.4,6.6,30.22,West,276,0.0,0.0,48,0.00,,---,0.00,VWS V14.01,2013-01-23 06:30:00,
2013-01-23 01:35:00,23.3,6.5,30.22,West,276,1.0,1.0,48,0.00,,---,0.00,VWS V14.01,2013-01-23 06:35:00,
2013-01-23 01:40:00,23.2,5.5,30.22,West,281,1.0,2.0,46,0.00,,---,0.00,VWS V14.01,2013-01-23 06:40:00,
2013-01-23 01:45:00,23.3,5.1,30.22,WNW,285,0.0,3.0,45,0.00,,---,0.00,VWS V14.01,2013-01-23 06:45:00,
2013-01-23 01:50:00,23.2,6.0,30.22,NNW,339,1.0,3.0,47,0.00,,---,0.00,VWS V14.01,2013-01-23 06:50:00,
2013-01-23 01:55:00,23.1,4.9,30.22,NNW,337,1.0,3.0,45,0.00,,---,0.00,VWS V14.01,2013-01-23 06:55:00,
2013-01-23 02:00:00,23.1,5.4,30.22,NNW,342,0.0,0.0,46,0.00,,---,0.00,VWS V14.01,2013-01-23 07:00:00,
2013-01-23 02:05:00,23.1,4.4,30.22,NNW,342,0.0,1.0,44,0.00,,---,0.00,VWS V14.01,2013-01-23 07:05:00,
2013-01-23 02:11:00,23.1,6.3,30.22,NNW,342,0.0,0.0,48,0.00,,---,0.00,VWS V14.01,2013-01-23 07:11:00,
2013-01-23 02:16:00,22.8,6.5,30.23,NNW,342,0.0,0.0,49,0.00,,---,0.00,VWS V14.01,2013-01-23 07:16:00,
2013-01-23 02:21:00,22.6,6.3,30.23,NNW,342,0.0,0.0,49,0.00,,---,0.00,VWS V14.01,2013-01-23 07:21:00,
2013-01-23 02:26:00,22.4,6.6,30.23,NNW,342,0.0,0.0,50,0.00,,---,0.00,VWS V14.01,2013-01-23 07:26:00,
2013-01-23 02:31:00,22.2,7.3,30.24,NNW,342,0.0,0.0,52,0.00,,---,0.00,VWS V14.01,2013-01-23 07:31:00,
2013-01-23 02:36:00,22.0,8.3,30.24,NNW,342,0.0,0.0,55,0.00,,---,0.00,VWS V14.01,2013-01-23 07:36:00,
2013-01-23 02:41:00,21.7,7.6,30.24,NNW,342,0.0,0.0,54,0.00,,---,0.00,VWS V14.01,2013-01-23 07:41:00,
2013-01-23 02:47:00,21.5,7.0,30.24,NNW,342,0.0,0.0,53,0.00,,---,0.00,VWS V14.01,2013-01-23 07:47:00,
2013-01-23 02:52:00,21.3,5.6,30.24,NNW,342,0.0,0.0,50,0.00,,---,0.00,VWS V14.01,2013-01-23 07:52:00,
2013-01-23 02:57:00,21.3,8.1,30.24,NNW,342,0.0,1.0,56,0.00,,---,0.00,VWS V14.01,2013-01-23 07:57:00,
2013-01-23 03:02:00,21.3,8.1,30.25,NNW,342,0.0,0.0,56,0.00,,---,0.00,VWS V14.01,2013-01-23 08:02:00,
2013-01-23 03:07:00,21.2,7.6,30.25,NNW,342,0.0,0.0,55,0.00,,---,0.00,VWS V14.01,2013-01-23 08:07:00,
2013-01-23 03:12:00,21.3,7.3,30.25,NNW,342,0.0,0.0,54,0.00,,---,0.00,VWS V14.01,2013-01-23 08:12:00,
2013-01-23 03:17:00,21.5,7.4,30.25,NNW,342,0.0,0.0,54,0.00,,---,0.00,VWS V14.01,2013-01-23 08:17:00,
2013-01-23 03:22:00,21.7,8.8,30.25,NNW,342,0.0,0.0,57,0.00,,---,0.00,VWS V14.01,2013-01-23 08:22:00,
2013-01-23 03:28:00,21.8,9.3,30.25,NNW,342,0.0,0.0,58,0.00,,---,0.00,VWS V14.01,2013-01-23 08:28:00,
2013-01-23 03:33:00,21.9,9.0,30.25,NNW,342,0.0,0.0,57,0.00,,---,0.00,VWS V14.01,2013-01-23 08:33:00,
2013-01-23 03:38:00,22.0,8.7,30.25,NNW,342,0.0,0.0,56,0.00,,---,0.00,VWS V14.01,2013-01-23 08:38:00,
2013-01-23 03:43:00,22.1,9.6,30.25,NNW,342,0.0,0.0,58,0.00,,---,0.00,VWS V14.01,2013-01-23 08:43:00,
2013-01-23 03:48:00,22.4,9.9,30.25,NNW,342,0.0,0.0,58,0.00,,---,0.00,VWS V14.01,2013-01-23 08:48:00,
2013-01-23 03:53:00,22.6,10.4,30.25,NNW,342,0.0,0.0,59,0.00,,---,0.00,VWS V14.01,2013-01-23 08:53:00,
2013-01-23 03:58:00,22.7,11.3,30.25,NNW,342,0.0,0.0,61,0.00,,---,0.00,VWS V14.01,2013-01-23 08:58:00,
2013-01-23 04:03:00,22.7,11.3,30.25,NNW,342,0.0,0.0,61,0.00,,---,0.00,VWS V14.01,2013-01-23 09:03:00,
2013-01-23 04:08:00,22.7,11.6,30.25,NNW,342,0.0,0.0,62,0.00,,---,0.00,VWS V14.01,2013-01-23 09:08:00,
2013-01-23 04:13:00,22.7,11.3,30.25,NNW,342,0.0,0.0,61,0.00,,---,0.00,VWS V14.01,2013-01-23 09:13:00,
2013-01-23 04:18:00,22.7,11.6,30.25,NNW,342,0.0,0.0,62,0.00,,---,0.00,VWS V14.01,2013-01-23 09:18:00,
2013-01-23 04:23:00,22.9,11.8,30.25,NNW,342,0.0,0.0,62,0.00,,---,0.00,VWS V14.01,2013-01-23 09:23:00,
2013-01-23 04:28:00,22.8,12.5,30.25,NNW,342,0.0,0.0,64,0.00,,---,0.00,VWS V14.01,2013-01-23 09:28:00,
2013-01-23 04:33:00,22.6,11.2,30.25,NNW,342,0.0,0.0,61,0.00,,---,0.00,VWS V14.01,2013-01-23 09:33:00,
2013-01-23 04:39:00,22.5,11.1,30.25,NNW,342,0.0,0.0,61,0.00,,---,0.00,VWS V14.01,2013-01-23 09:39:00,
2013-01-23 04:44:00,22.2,10.8,30.25,NNW,342,0.0,0.0,61,0.00,,---,0.00,VWS V14.01,2013-01-23 09:44:00,
2013-01-23 04:49:00,22.0,10.6,30.25,NNW,342,0.0,1.0,61,0.00,,---,0.00,VWS V14.01,2013-01-23 09:49:00,
2013-01-23 04:54:00,21.7,10.0,30.25,NNW,342,0.0,0.0,60,0.00,,---,0.00,VWS V14.01,2013-01-23 09:54:00,
2013-01-23 04:59:00,21.7,10.0,30.25,NNW,342,0.0,0.0,60,0.00,,---,0.00,VWS V14.01,2013-01-23 09:59:00,
2013-01-23 05:04:00,21.8,10.1,30.25,NNW,342,0.0,0.0,60,0.00,,---,0.00,VWS V14.01,2013-01-23 10:04:00,
2013-01-23 05:09:00,21.7,10.3,30.25,NNW,342,0.0,0.0,61,0.00,,---,0.00,VWS V14.01,2013-01-23 10:09:00,
2013-01-23 05:14:00,21.8,10.8,30.25,NNW,342,0.0,0.0,62,0.00,,---,0.00,VWS V14.01,2013-01-23 10:14:00,
2013-01-23 05:19:00,21.7,11.1,30.25,NNW,342,0.0,0.0,63,0.00,,---,0.00,VWS V14.01,2013-01-23 10:19:00,
2013-01-23 05:24:00,21.4,10.8,30.25,NNW,342,0.0,0.0,63,0.00,,---,0.00,VWS V14.01,2013-01-23 10:24:00,
2013-01-23 05:29:00,21.3,10.3,30.25,NNW,342,0.0,0.0,62,0.00,,---,0.00,VWS V14.01,2013-01-23 10:29:00,
2013-01-23 05:35:00,21.2,10.6,30.25,NNW,342,0.0,1.0,63,0.00,,---,0.00,VWS V14.01,2013-01-23 10:35:00,
2013-01-23 05:39:00,21.0,10.0,30.25,NNW,342,0.0,0.0,62,0.00,,---,0.00,VWS V14.01,2013-01-23 10:39:00,
2013-01-23 05:45:00,21.0,10.8,30.25,NNW,342,0.0,1.0,64,0.00,,---,0.00,VWS V14.01,2013-01-23 10:45:00,
2013-01-23 05:50:00,21.1,10.8,30.25,NNW,342,0.0,0.0,64,0.00,,---,0.00,VWS V14.01,2013-01-23 10:50:00,
2013-01-23 05:55:00,20.8,11.2,30.25,NNW,342,0.0,0.0,66,0.00,,---,0.00,VWS V14.01,2013-01-23 10:55:00,
2013-01-23 06:00:00,20.8,10.6,30.27,NNW,342,0.0,0.0,64,0.00,,---,0.00,VWS V14.01,2013-01-23 11:00:00,
2013-01-23 06:05:00,20.9,10.6,30.27,NNW,342,0.0,0.0,64,0.00,,---,0.00,VWS V14.01,2013-01-23 11:05:00,
2013-01-23 06:10:00,20.9,11.3,30.27,NNW,342,0.0,0.0,66,0.00,,---,0.00,VWS V14.01,2013-01-23 11:10:00,
2013-01-23 06:15:00,20.8,11.2,30.27,NNW,342,0.0,0.0,66,0.00,,---,0.00,VWS V14.01,2013-01-23 11:15:00,
2013-01-23 06:20:00,20.8,11.9,30.27,NNW,342,0.0,0.0,68,0.00,,---,0.00,VWS V14.01,2013-01-23 11:20:00,
2013-01-23 06:25:00,20.9,12.0,30.27,NNW,342,0.0,0.0,68,0.00,,---,0.00,VWS V14.01,2013-01-23 11:25:00,
2013-01-23 06:30:00,20.9,12.0,30.27,NNW,342,0.0,0.0,68,0.00,,---,0.00,VWS V14.01,2013-01-23 11:30:00,
2013-01-23 06:35:00,20.8,11.9,30.27,NNW,342,0.0,0.0,68,0.00,,---,0.00,VWS V14.01,2013-01-23 11:35:00,
2013-01-23 06:40:00,20.9,12.0,30.27,NNW,342,0.0,0.0,68,0.00,,---,0.00,VWS V14.01,2013-01-23 11:40:00,
2013-01-23 06:46:00,20.9,12.0,30.27,NNW,342,0.0,0.0,68,0.00,,---,0.00,VWS V14.01,2013-01-23 11:46:00,
2013-01-23 06:51:00,20.6,11.1,30.27,NNW,342,0.0,0.0,66,0.00,,---,0.00,VWS V14.01,2013-01-23 11:51:00,
2013-01-23 06:56:00,20.4,9.8,30.27,NNW,342,0.0,0.0,63,0.00,,---,0.00,VWS V14.01,2013-01-23 11:56:00,
2013-01-23 07:01:00,20.2,10.3,30.28,NNW,342,0.0,0.0,65,0.00,,---,0.00,VWS V14.01,2013-01-23 12:01:00,
2013-01-23 07:06:00,20.1,10.9,30.28,NNW,342,0.0,0.0,67,0.00,,---,0.00,VWS V14.01,2013-01-23 12:06:00,
2013-01-23 07:12:00,19.8,11.0,30.28,NNW,342,0.0,0.0,68,0.00,,---,0.00,VWS V14.01,2013-01-23 12:12:00,
2013-01-23 07:17:00,19.8,11.6,30.28,NNW,342,0.0,0.0,70,0.00,,---,0.00,VWS V14.01,2013-01-23 12:17:00,
2013-01-23 07:22:00,19.8,11.9,30.28,NNW,342,0.0,0.0,71,0.00,,---,0.00,VWS V14.01,2013-01-23 12:22:00,
2013-01-23 07:27:00,19.9,12.0,30.28,NNW,342,0.0,0.0,71,0.00,,---,0.00,VWS V14.01,2013-01-23 12:27:00,
2013-01-23 07:32:00,19.9,10.7,30.29,NNW,342,0.0,1.0,67,0.00,,---,0.00,VWS V14.01,2013-01-23 12:32:00,
2013-01-23 07:37:00,19.8,11.0,30.29,NNW,342,0.0,1.0,68,0.00,,---,0.00,VWS V14.01,2013-01-23 12:37:00,
2013-01-23 07:42:00,19.8,10.6,30.29,NNW,342,0.0,0.0,67,0.00,,---,0.00,VWS V14.01,2013-01-23 12:42:00,
2013-01-23 07:47:00,19.8,9.6,30.29,NNW,342,0.0,0.0,64,0.00,,---,0.00,VWS V14.01,2013-01-23 12:47:00,
2013-01-23 07:52:00,20.1,8.5,30.29,NNW,342,0.0,0.0,60,0.00,,---,0.00,VWS V14.01,2013-01-23 12:52:00,
2013-01-23 07:57:00,20.3,9.7,30.29,NNW,342,0.0,0.0,63,0.00,,---,0.00,VWS V14.01,2013-01-23 12:57:00,
2013-01-23 08:02:00,20.4,10.9,30.29,NNW,342,0.0,0.0,66,0.00,,---,0.00,VWS V14.01,2013-01-23 13:02:00,
2013-01-23 08:07:00,20.6,10.4,30.29,NNW,342,0.0,0.0,64,0.00,,---,0.00,VWS V14.01,2013-01-23 13:07:00,
2013-01-23 08:13:00,20.8,10.6,30.29,NNW,342,0.0,0.0,64,0.00,,---,0.00,VWS V14.01,2013-01-23 13:13:00,
2013-01-23 08:18:00,21.3,11.7,30.29,NNW,342,0.0,0.0,66,0.00,,---,0.00,VWS V14.01,2013-01-23 13:18:00,
2013-01-23 08:23:00,21.7,10.7,30.29,NNW,342,0.0,0.0,62,0.00,,---,0.00,VWS V14.01,2013-01-23 13:23:00,
2013-01-23 08:28:00,22.4,9.9,30.29,NNW,341,0.0,3.0,58,0.00,,---,0.00,VWS V14.01,2013-01-23 13:28:00,
2013-01-23 08:33:00,23.1,10.1,30.29,NNW,341,0.0,0.0,57,0.00,,---,0.00,VWS V14.01,2013-01-23 13:33:00,
2013-01-23 08:38:00,23.6,9.0,30.29,NNW,327,0.0,2.0,53,0.00,,---,0.00,VWS V14.01,2013-01-23 13:38:00,
2013-01-23 08:43:00,24.4,9.7,30.29,NNW,327,2.0,2.0,53,0.00,,---,0.00,VWS V14.01,2013-01-23 13:43:00,
2013-01-23 08:48:00,25.1,8.2,30.30,South,178,1.0,4.0,48,0.00,,---,0.00,VWS V14.01,2013-01-23 13:48:00,
2013-01-23 08:53:00,25.4,8.9,30.30,SSW,196,0.0,4.0,49,0.00,,---,0.00,VWS V14.01,2013-01-23 13:53:00,
2013-01-23 08:58:00,25.6,7.7,30.30,South,182,1.0,4.0,46,0.00,,---,0.00,VWS V14.01,2013-01-23 13:58:00,
2013-01-23 09:03:00,25.9,7.5,30.30,SSW,197,0.0,5.0,45,0.00,,---,0.00,VWS V14.01,2013-01-23 14:03:00,
2013-01-23 09:08:00,26.1,7.2,30.30,South,187,0.0,5.0,44,0.00,,---,0.00,VWS V14.01,2013-01-23 14:08:00,
2013-01-23 09:13:00,26.5,6.5,30.30,South,187,3.0,4.0,42,0.00,,---,0.00,VWS V14.01,2013-01-23 14:13:00,
2013-01-23 09:18:00,26.7,6.7,30.30,South,187,1.0,4.0,42,0.00,,---,0.00,VWS V14.01,2013-01-23 14:18:00,
2013-01-23 09:23:00,27.1,6.5,30.30,South,187,1.0,3.0,41,0.00,,---,0.00,VWS V14.01,2013-01-23 14:23:00,
2013-01-23 09:29:00,27.6,7.0,30.31,South,187,0.0,3.0,41,0.00,,---,0.00,VWS V14.01,2013-01-23 14:29:00,
2013-01-23 09:34:00,28.0,7.9,30.31,South,187,0.0,2.0,42,0.00,,---,0.00,VWS V14.01,2013-01-23 14:34:00,
2013-01-23 09:39:00,28.4,6.6,30.31,South,178,0.0,4.0,39,0.00,,---,0.00,VWS V14.01,2013-01-23 14:39:00,
2013-01-23 09:44:00,28.7,7.4,30.31,South,178,0.0,4.0,40,0.00,,---,0.00,VWS V14.01,2013-01-23 14:44:00,
2013-01-23 09:49:00,29.0,7.2,30.31,SSW,192,1.0,4.0,39,0.00,,---,0.00,VWS V14.01,2013-01-23 14:49:00,
2013-01-23 09:54:00,29.2,7.9,30.31,SSW,194,0.0,5.0,40,0.00,,---,0.00,VWS V14.01,2013-01-23 14:54:00,
2013-01-23 09:59:00,29.5,8.7,30.31,ESE,111,2.0,5.0,41,0.00,,---,0.00,VWS V14.01,2013-01-23 14:59:00,
2013-01-23 10:04:00,29.6,7.7,30.31,South,184,2.0,3.0,39,0.00,,---,0.00,VWS V14.01,2013-01-23 15:04:00,
2013-01-23 10:09:00,29.8,8.4,30.31,SE,124,0.0,4.0,40,0.00,,---,0.00,VWS V14.01,2013-01-23 15:09:00,
2013-01-23 10:14:00,30.8,9.9,30.31,SW,217,3.0,4.0,41,0.00,,---,0.00,VWS V14.01,2013-01-23 15:14:00,
2013-01-23 10:19:00,31.2,8.6,30.31,West,260,4.0,4.0,38,0.00,,---,0.00,VWS V14.01,2013-01-23 15:19:00,
2013-01-23 10:24:00,31.4,8.1,30.31,West,263,0.0,4.0,37,0.00,,---,0.00,VWS V14.01,2013-01-23 15:24:00,
2013-01-23 10:30:00,32.1,9.4,30.31,SSE,161,1.0,2.0,38,0.00,,---,0.00,VWS V14.01,2013-01-23 15:30:00,
2013-01-23 10:35:00,31.5,8.8,30.31,East,96,5.0,7.0,38,0.00,,---,0.00,VWS V14.01,2013-01-23 15:35:00,
2013-01-23 10:40:00,32.2,10.0,30.31,SSE,148,5.0,5.0,39,0.00,,---,0.00,VWS V14.01,2013-01-23 15:40:00,
2013-01-23 10:45:00,32.8,9.4,30.30,South,180,1.0,6.0,37,0.00,,---,0.00,VWS V14.01,2013-01-23 15:45:00,
2013-01-23 10:50:00,33.9,11.0,30.30,SE,131,3.0,4.0,38,0.00,,---,0.00,VWS V14.01,2013-01-23 15:50:00,
2013-01-23 10:55:00,32.8,8.8,30.30,SSW,205,4.0,10.0,36,0.00,,---,0.00,VWS V14.01,2013-01-23 15:55:00,
2013-01-23 11:00:00,33.3,10.4,30.29,SE,136,6.0,7.0,38,0.00,,---,0.00,VWS V14.01,2013-01-23 16:00:00,
2013-01-23 11:05:00,33.4,9.3,30.29,SSE,151,3.0,7.0,36,0.00,,---,0.00,VWS V14.01,2013-01-23 16:05:00,
2013-01-23 11:10:00,34.0,10.5,30.29,South,189,4.0,6.0,37,0.00,,---,0.00,VWS V14.01,2013-01-23 16:10:00,
2013-01-23 11:16:00,34.4,12.0,30.29,SSW,201,6.0,9.0,39,0.00,,---,0.00,VWS V14.01,2013-01-23 16:16:00,
2013-01-23 11:21:00,35.1,12.1,30.29,SSE,152,4.0,6.0,38,0.00,,---,0.00,VWS V14.01,2013-01-23 16:21:00,
2013-01-23 11:26:00,35.4,12.3,30.29,SW,226,5.0,11.0,38,0.00,,---,0.00,VWS V14.01,2013-01-23 16:26:00,
2013-01-23 11:31:00,36.0,12.9,30.27,West,266,9.0,9.0,38,0.00,,---,0.00,VWS V14.01,2013-01-23 16:31:00,
2013-01-23 11:36:00,36.1,13.6,30.27,SW,227,10.0,14.0,39,0.00,,---,0.00,VWS V14.01,2013-01-23 16:36:00,
2013-01-23 11:41:00,36.0,13.5,30.27,SSW,195,12.0,12.0,39,0.00,,---,0.00,VWS V14.01,2013-01-23 16:41:00,
2013-01-23 11:46:00,36.2,14.8,30.27,WNW,282,3.0,14.0,41,0.00,,---,0.00,VWS V14.01,2013-01-23 16:46:00,
2013-01-23 11:51:00,36.6,14.6,30.27,West,270,6.0,9.0,40,0.00,,---,0.00,VWS V14.01,2013-01-23 16:51:00,
2013-01-23 11:56:00,36.6,15.1,30.27,West,260,3.0,11.0,41,0.00,,---,0.00,VWS V14.01,2013-01-23 16:56:00,
2013-01-23 12:01:00,36.9,14.9,30.26,South,188,10.0,10.0,40,0.00,,---,0.00,VWS V14.01,2013-01-23 17:01:00,
2013-01-23 12:06:00,37.0,14.4,30.26,West,262,6.0,14.0,39,0.00,,---,0.00,VWS V14.01,2013-01-23 17:06:00,
2013-01-23 12:11:00,37.3,14.6,30.26,SW,227,4.0,10.0,39,0.00,,---,0.00,VWS V14.01,2013-01-23 17:11:00,
2013-01-23 12:16:00,36.8,14.2,30.24,SW,231,10.0,16.0,39,0.00,,---,0.00,VWS V14.01,2013-01-23 17:16:00,
2013-01-23 12:21:00,37.7,15.6,30.24,SSE,166,7.0,7.0,40,0.00,,---,0.00,VWS V14.01,2013-01-23 17:21:00,
2013-01-23 12:27:00,37.4,14.7,30.24,SW,219,5.0,15.0,39,0.00,,---,0.00,VWS V14.01,2013-01-23 17:27:00,
2013-01-23 12:32:00,37.3,14.0,30.22,SW,229,4.0,7.0,38,0.00,,---,0.00,VWS V14.01,2013-01-23 17:32:00,
2013-01-23 12:37:00,37.8,15.7,30.22,SW,231,3.0,11.0,40,0.00,,---,0.00,VWS V14.01,2013-01-23 17:37:00,
2013-01-23 12:42:00,38.4,17.3,30.22,WSW,248,5.0,11.0,42,0.00,,---,0.00,VWS V14.01,2013-01-23 17:42:00,
2013-01-23 12:47:00,38.9,16.6,30.22,WSW,242,3.0,11.0,40,0.00,,---,0.00,VWS V14.01,2013-01-23 17:47:00,
2013-01-23 12:52:00,39.6,16.7,30.22,WSW,257,8.0,9.0,39,0.00,,---,0.00,VWS V14.01,2013-01-23 17:52:00,
2013-01-23 12:57:00,40.0,16.5,30.22,WSW,249,4.0,13.0,38,0.00,,---,0.00,VWS V14.01,2013-01-23 17:57:00,
2013-01-23 13:02:00,39.9,16.4,30.20,West,260,13.0,17.0,38,0.00,,---,0.00,VWS V14.01,2013-01-23 18:02:00,
2013-01-23 13:07:00,39.0,16.7,30.20,WSW,237,9.0,17.0,40,0.00,,---,0.00,VWS V14.01,2013-01-23 18:07:00,
2013-01-23 13:12:00,39.3,17.0,30.20,SW,234,3.0,7.0,40,0.00,,---,0.00,VWS V14.01,2013-01-23 18:12:00,
2013-01-23 13:17:00,39.0,16.2,30.19,West,265,2.0,14.0,39,0.00,,---,0.00,VWS V14.01,2013-01-23 18:17:00,
2013-01-23 13:22:00,39.8,18.0,30.19,West,268,5.0,11.0,41,0.00,,---,0.00,VWS V14.01,2013-01-23 18:22:00,
2013-01-23 13:27:00,40.0,17.6,30.19,WSW,245,7.0,12.0,40,0.00,,---,0.00,VWS V14.01,2013-01-23 18:27:00,
2013-01-23 13:32:00,40.4,19.7,30.18,West,271,9.0,11.0,43,0.00,,---,0.00,VWS V14.01,2013-01-23 18:32:00,
2013-01-23 13:37:00,41.0,18.0,30.18,West,264,6.0,17.0,39,0.00,,---,0.00,VWS V14.01,2013-01-23 18:37:00,
2013-01-23 13:42:00,41.3,18.2,30.18,West,265,6.0,10.0,39,0.00,,---,0.00,VWS V14.01,2013-01-23 18:42:00,
2013-01-23 13:47:00,41.9,18.2,30.17,SSW,192,12.0,12.0,38,0.00,,---,0.00,VWS V14.01,2013-01-23 18:47:00,
2013-01-23 13:52:00,41.6,17.9,30.17,SW,215,8.0,13.0,38,0.00,,---,0.00,VWS V14.01,2013-01-23 18:52:00,
2013-01-23 13:57:00,40.8,17.8,30.17,South,186,11.0,13.0,39,0.00,,---,0.00,VWS V14.01,2013-01-23 18:57:00,
2013-01-23 14:03:00,40.5,18.7,30.17,WSW,242,2.0,11.0,41,0.00,,---,0.00,VWS V14.01,2013-01-23 19:03:00,
2013-01-23 14:08:00,40.1,17.1,30.17,WSW,254,8.0,12.0,39,0.00,,---,0.00,VWS V14.01,2013-01-23 19:08:00,
2013-01-23 14:13:00,40.0,18.8,30.17,SSW,203,3.0,7.0,42,0.00,,---,0.00,VWS V14.01,2013-01-23 19:13:00,
2013-01-23 14:18:00,40.2,18.4,30.16,SSW,212,6.0,11.0,41,0.00,,---,0.00,VWS V14.01,2013-01-23 19:18:00,
2013-01-23 14:23:00,40.5,18.1,30.16,WSW,242,3.0,12.0,40,0.00,,---,0.00,VWS V14.01,2013-01-23 19:23:00,
2013-01-23 14:28:00,40.7,17.7,30.16,WSW,242,3.0,14.0,39,0.00,,---,0.00,VWS V14.01,2013-01-23 19:28:00,
2013-01-23 14:33:00,41.5,20.1,30.16,WSW,239,11.0,17.0,42,0.00,,---,0.00,VWS V14.01,2013-01-23 19:33:00,
2013-01-23 14:38:00,41.8,18.7,30.16,South,188,1.0,17.0,39,0.00,,---,0.00,VWS V14.01,2013-01-23 19:38:00,
2013-01-23 14:43:00,42.4,19.8,30.16,SSE,168,5.0,11.0,40,0.00,,---,0.00,VWS V14.01,2013-01-23 19:43:00,
2013-01-23 14:48:00,42.7,18.9,30.15,SSW,199,10.0,18.0,38,0.00,,---,0.00,VWS V14.01,2013-01-23 19:48:00,
2013-01-23 14:53:00,42.1,19.0,30.15,SSW,196,5.0,12.0,39,0.00,,---,0.00,VWS V14.01,2013-01-23 19:53:00,
2013-01-23 14:58:00,42.2,18.4,30.15,SSE,157,5.0,15.0,38,0.00,,---,0.00,VWS V14.01,2013-01-23 19:58:00,
2013-01-23 15:03:00,41.9,18.2,30.14,SSW,207,2.0,15.0,38,0.00,,---,0.00,VWS V14.01,2013-01-23 20:03:00,
2013-01-23 15:08:00,42.0,20.0,30.14,SSW,205,11.0,15.0,41,0.00,,---,0.00,VWS V14.01,2013-01-23 20:08:00,
2013-01-23 15:14:00,42.4,19.8,30.14,WSW,237,6.0,12.0,40,0.00,,---,0.00,VWS V14.01,2013-01-23 20:14:00,
2013-01-23 15:19:00,42.2,19.0,30.14,SSW,207,12.0,12.0,39,0.00,,---,0.00,VWS V14.01,2013-01-23 20:19:00,
2013-01-23 15:24:00,42.2,19.6,30.14,SW,232,8.0,10.0,40,0.00,,---,0.00,VWS V14.01,2013-01-23 20:24:00,
2013-01-23 15:29:00,42.3,19.7,30.14,SSW,211,5.0,12.0,40,0.00,,---,0.00,VWS V14.01,2013-01-23 20:29:00,
2013-01-23 15:34:00,42.3,19.7,30.14,SW,220,5.0,14.0,40,0.00,,---,0.00,VWS V14.01,2013-01-23 20:34:00,
2013-01-23 15:39:00,42.0,19.5,30.14,WSW,240,11.0,14.0,40,0.00,,---,0.00,VWS V14.01,2013-01-23 20:39:00,
2013-01-23 15:44:00,42.1,20.1,30.14,South,187,2.0,12.0,41,0.00,,---,0.00,VWS V14.01,2013-01-23 20:44:00,
2013-01-23 15:49:00,42.2,19.0,30.14,South,185,1.0,13.0,39,0.00,,---,0.00,VWS V14.01,2013-01-23 20:49:00,
2013-01-23 15:54:00,42.2,19.6,30.14,SSE,161,2.0,11.0,40,0.00,,---,0.00,VWS V14.01,2013-01-23 20:54:00,
2013-01-23 15:59:00,42.2,19.6,30.13,SW,215,4.0,11.0,40,0.00,,---,0.00,VWS V14.01,2013-01-23 20:59:00,
2013-01-23 16:04:00,42.5,19.3,30.13,SSW,212,5.0,9.0,39,0.00,,---,0.00,VWS V14.01,2013-01-23 21:04:00,
2013-01-23 16:09:00,42.0,18.9,30.13,SSE,148,5.0,10.0,39,0.00,,---,0.00,VWS V14.01,2013-01-23 21:09:00,
2013-01-23 16:14:00,41.7,18.6,30.13,SSW,194,6.0,15.0,39,0.00,,---,0.00,VWS V14.01,2013-01-23 21:14:00,
2013-01-23 16:19:00,41.6,19.1,30.13,SSE,160,6.0,15.0,40,0.00,,---,0.00,VWS V14.01,2013-01-23 21:19:00,
2013-01-23 16:25:00,41.8,18.7,30.13,SSW,196,4.0,10.0,39,0.00,,---,0.00,VWS V14.01,2013-01-23 21:25:00,
2013-01-23 16:30:00,41.8,18.7,30.13,SSW,196,7.0,7.0,39,0.00,,---,0.00,VWS V14.01,2013-01-23 21:30:00,
2013-01-23 16:35:00,41.4,17.7,30.13,SSW,213,6.0,10.0,38,0.00,,---,0.00,VWS V14.01,2013-01-23 21:35:00,
2013-01-23 16:40:00,41.1,18.6,30.13,SSW,204,4.0,5.0,40,0.00,,---,0.00,VWS V14.01,2013-01-23 21:40:00,
2013-01-23 16:45:00,41.0,18.0,30.13,South,182,2.0,7.0,39,0.00,,---,0.00,VWS V14.01,2013-01-23 21:45:00,
2013-01-23 16:50:00,40.8,17.8,30.13,South,190,7.0,7.0,39,0.00,,---,0.00,VWS V14.01,2013-01-23 21:50:00,
2013-01-23 16:55:00,40.6,18.2,30.13,SSW,200,2.0,10.0,40,0.00,,---,0.00,VWS V14.01,2013-01-23 21:55:00,
2013-01-23 17:00:00,40.5,18.1,30.13,SSW,206,8.0,9.0,40,0.00,,---,0.00,VWS V14.01,2013-01-23 22:00:00,
2013-01-23 17:05:00,40.3,18.5,30.13,SSW,196,2.0,9.0,41,0.00,,---,0.00,VWS V14.01,2013-01-23 22:05:00,
2013-01-23 17:10:00,40.1,18.3,30.13,SSW,198,2.0,3.0,41,0.00,,---,0.00,VWS V14.01,2013-01-23 22:10:00,
2013-01-23 17:15:00,40.0,18.2,30.12,South,190,9.0,9.0,41,0.00,,---,0.00,VWS V14.01,2013-01-23 22:15:00,
2013-01-23 17:20:00,39.9,18.1,30.12,SSW,208,0.0,2.0,41,0.00,,---,0.00,VWS V14.01,2013-01-23 22:20:00,
2013-01-23 17:25:00,39.7,18.0,30.12,SSW,194,3.0,5.0,41,0.00,,---,0.00,VWS V14.01,2013-01-23 22:25:00,
2013-01-23 17:30:00,39.4,17.7,30.12,South,177,1.0,3.0,41,0.00,,---,0.00,VWS V14.01,2013-01-23 22:30:00,
2013-01-23 17:35:00,39.2,18.0,30.12,SSW,199,3.0,5.0,42,0.00,,---,0.00,VWS V14.01,2013-01-23 22:35:00,
2013-01-23 17:40:00,38.8,17.7,30.12,SSW,200,0.0,1.0,42,0.00,,---,0.00,VWS V14.01,2013-01-23 22:40:00,
2013-01-23 17:46:00,38.4,17.9,30.12,South,169,0.0,4.0,43,0.00,,---,0.00,VWS V14.01,2013-01-23 22:46:00,
2013-01-23 17:51:00,38.0,17.5,30.12,South,169,0.0,2.0,43,0.00,,---,0.00,VWS V14.01,2013-01-23 22:51:00,
2013-01-23 17:56:00,37.7,17.8,30.12,South,172,1.0,3.0,44,0.00,,---,0.00,VWS V14.01,2013-01-23 22:56:00,
2013-01-23 18:01:00,37.2,17.8,30.11,SE,143,0.0,4.0,45,0.00,,---,0.00,VWS V14.01,2013-01-23 23:01:00,
2013-01-23 18:06:00,37.0,17.6,30.11,SE,143,0.0,4.0,45,0.00,,---,0.00,VWS V14.01,2013-01-23 23:06:00,
2013-01-23 18:11:00,36.7,17.4,30.11,SE,143,0.0,1.0,45,0.00,,---,0.00,VWS V14.01,2013-01-23 23:11:00,
2013-01-23 18:16:00,36.4,17.6,30.11,SE,143,0.0,1.0,46,0.00,,---,0.00,VWS V14.01,2013-01-23 23:16:00,
2013-01-23 18:21:00,36.0,17.2,30.11,SE,144,0.0,0.0,46,0.00,,---,0.00,VWS V14.01,2013-01-23 23:21:00,
2013-01-23 18:26:00,35.8,17.6,30.11,SE,144,0.0,3.0,47,0.00,,---,0.00,VWS V14.01,2013-01-23 23:26:00,
2013-01-23 18:31:00,35.5,17.8,30.11,SE,144,0.0,0.0,48,0.00,,---,0.00,VWS V14.01,2013-01-23 23:31:00,
2013-01-23 18:36:00,35.3,17.6,30.11,SE,144,0.0,0.0,48,0.00,,---,0.00,VWS V14.01,2013-01-23 23:36:00,
2013-01-23 18:41:00,35.4,17.7,30.11,SE,144,0.0,1.0,48,0.00,,---,0.00,VWS V14.01,2013-01-23 23:41:00,
2013-01-23 18:47:00,35.3,17.6,30.11,SE,144,0.0,1.0,48,0.00,,---,0.00,VWS V14.01,2013-01-23 23:47:00,
2013-01-23 18:52:00,35.4,17.7,30.11,SE,144,0.0,1.0,48,0.00,,---,0.00,VWS V14.01,2013-01-23 23:52:00,
2013-01-23 18:57:00,35.1,17.9,30.11,SE,144,0.0,1.0,49,0.00,,---,0.00,VWS V14.01,2013-01-23 23:57:00,
2013-01-23 19:02:00,34.8,17.6,30.10,SE,144,0.0,1.0,49,0.00,,---,0.00,VWS V14.01,2013-01-24 00:02:00,
2013-01-23 19:07:00,34.7,17.5,30.10,SE,144,0.0,1.0,49,0.00,,---,0.00,VWS V14.01,2013-01-24 00:07:00,
2013-01-23 19:12:00,34.4,17.7,30.10,SE,144,0.0,0.0,50,0.00,,---,0.00,VWS V14.01,2013-01-24 00:12:00,
2013-01-23 19:17:00,34.1,18.3,30.09,SE,144,0.0,0.0,52,0.00,,---,0.00,VWS V14.01,2013-01-24 00:17:00,
2013-01-23 19:22:00,33.7,18.0,30.09,SE,144,0.0,0.0,52,0.00,,---,0.00,VWS V14.01,2013-01-24 00:22:00,
2013-01-23 19:27:00,33.4,18.6,30.09,SE,144,0.0,0.0,54,0.00,,---,0.00,VWS V14.01,2013-01-24 00:27:00,
2013-01-23 19:33:00,32.9,18.9,30.09,SE,144,0.0,0.0,56,0.00,,---,0.00,VWS V14.01,2013-01-24 00:33:00,
2013-01-23 19:38:00,32.3,18.0,30.09,SE,144,0.0,0.0,55,0.00,,---,0.00,VWS V14.01,2013-01-24 00:38:00,
2013-01-23 19:43:00,32.1,18.2,30.09,SE,144,0.0,0.0,56,0.00,,---,0.00,VWS V14.01,2013-01-24 00:43:00,
2013-01-23 19:48:00,31.9,17.6,30.09,SE,144,0.0,0.0,55,0.00,,---,0.00,VWS V14.01,2013-01-24 00:48:00,
2013-01-23 19:53:00,31.6,17.7,30.09,SE,144,0.0,0.0,56,0.00,,---,0.00,VWS V14.01,2013-01-24 00:53:00,
2013-01-23 19:58:00,31.7,17.8,30.09,SE,144,0.0,1.0,56,0.00,,---,0.00,VWS V14.01,2013-01-24 00:58:00,
2013-01-23 20:03:00,32.2,17.9,30.08,SSE,148,0.0,3.0,55,0.00,,---,0.00,VWS V14.01,2013-01-24 01:03:00,
2013-01-23 20:08:00,32.6,18.2,30.08,SSE,148,0.0,3.0,55,0.00,,---,0.00,VWS V14.01,2013-01-24 01:08:00,
2013-01-23 20:13:00,32.6,18.2,30.08,SSE,148,0.0,0.0,55,0.00,,---,0.00,VWS V14.01,2013-01-24 01:13:00,
2013-01-23 20:18:00,32.5,18.6,30.08,SSE,148,0.0,0.0,56,0.00,,---,0.00,VWS V14.01,2013-01-24 01:18:00,
2013-01-23 20:23:00,32.4,19.3,30.08,SSE,148,0.0,0.0,58,0.00,,---,0.00,VWS V14.01,2013-01-24 01:23:00,
2013-01-23 20:29:00,32.3,18.4,30.08,SSE,148,0.0,0.0,56,0.00,,---,0.00,VWS V14.01,2013-01-24 01:29:00,
2013-01-23 20:34:00,32.1,18.6,30.08,SSE,148,0.0,1.0,57,0.00,,---,0.00,VWS V14.01,2013-01-24 01:34:00,
2013-01-23 20:39:00,32.5,19.4,30.08,SSE,148,0.0,1.0,58,0.00,,---,0.00,VWS V14.01,2013-01-24 01:39:00,
2013-01-23 20:44:00,32.4,18.9,30.08,SSE,148,0.0,1.0,57,0.00,,---,0.00,VWS V14.01,2013-01-24 01:44:00,
2013-01-23 20:49:00,32.3,19.2,30.08,SSE,148,0.0,1.0,58,0.00,,---,0.00,VWS V14.01,2013-01-24 01:49:00,
2013-01-23 20:54:00,32.2,19.5,30.08,SSE,148,0.0,0.0,59,0.00,,---,0.00,VWS V14.01,2013-01-24 01:54:00,
2013-01-23 20:59:00,31.6,19.3,30.08,SSE,148,0.0,0.0,60,0.00,,---,0.00,VWS V14.01,2013-01-24 01:59:00,
2013-01-23 21:04:00,31.6,19.3,30.08,SSE,148,0.0,0.0,60,0.00,,---,0.00,VWS V14.01,2013-01-24 02:04:00,
2013-01-23 21:09:00,31.5,18.8,30.08,SSE,148,0.0,0.0,59,0.00,,---,0.00,VWS V14.01,2013-01-24 02:09:00,
2013-01-23 21:14:00,31.3,19.0,30.06,SSE,148,0.0,1.0,60,0.00,,---,0.00,VWS V14.01,2013-01-24 02:14:00,
2013-01-23 21:19:00,31.2,19.0,30.06,SSE,148,0.0,1.0,60,0.00,,---,0.00,VWS V14.01,2013-01-24 02:19:00,
2013-01-23 21:24:00,31.2,19.0,30.06,SSE,148,0.0,0.0,60,0.00,,---,0.00,VWS V14.01,2013-01-24 02:24:00,
2013-01-23 21:29:00,31.1,18.5,30.06,SSE,148,0.0,0.0,59,0.00,,---,0.00,VWS V14.01,2013-01-24 02:29:00,
2013-01-23 21:35:00,31.0,18.8,30.06,SSE,148,0.0,0.0,60,0.00,,---,0.00,VWS V14.01,2013-01-24 02:35:00,
2013-01-23 21:40:00,30.6,19.1,30.06,SSE,148,0.0,0.0,62,0.00,,---,0.00,VWS V14.01,2013-01-24 02:40:00,
2013-01-23 21:45:00,30.5,18.3,30.05,SSE,148,0.0,0.0,60,0.00,,---,0.00,VWS V14.01,2013-01-24 02:45:00,
2013-01-23 21:50:00,30.6,18.4,30.05,SSE,148,0.0,0.0,60,0.00,,---,0.00,VWS V14.01,2013-01-24 02:50:00,
2013-01-23 21:55:00,30.4,19.0,30.05,SSE,148,0.0,0.0,62,0.00,,---,0.00,VWS V14.01,2013-01-24 02:55:00,
2013-01-23 22:00:00,30.3,18.9,30.05,SSE,148,0.0,0.0,62,0.00,,---,0.00,VWS V14.01,2013-01-24 03:00:00,
2013-01-23 22:05:00,30.2,19.1,30.05,SSE,148,0.0,0.0,63,0.00,,---,0.00,VWS V14.01,2013-01-24 03:05:00,
2013-01-23 22:10:00,30.2,19.1,30.05,SSE,148,0.0,0.0,63,0.00,,---,0.00,VWS V14.01,2013-01-24 03:10:00,
2013-01-23 22:15:00,30.1,18.7,30.04,SSE,148,0.0,0.0,62,0.00,,---,0.00,VWS V14.01,2013-01-24 03:15:00,
2013-01-23 22:20:00,30.2,18.4,30.04,SSE,148,0.0,0.0,61,0.00,,---,0.00,VWS V14.01,2013-01-24 03:20:00,
2013-01-23 22:25:00,29.9,18.5,30.04,SSE,148,0.0,0.0,62,0.00,,---,0.00,VWS V14.01,2013-01-24 03:25:00,
2013-01-23 22:30:00,29.6,18.6,30.03,SSE,148,0.0,0.0,63,0.00,,---,0.00,VWS V14.01,2013-01-24 03:30:00,
2013-01-23 22:35:00,29.4,20.2,30.03,SSE,148,0.0,0.0,68,0.00,,---,0.00,VWS V14.01,2013-01-24 03:35:00,
2013-01-23 22:40:00,29.2,21.0,30.03,SSE,148,0.0,0.0,71,0.00,,---,0.00,VWS V14.01,2013-01-24 03:40:00,
2013-01-23 22:45:00,29.1,21.9,30.02,SSE,148,0.0,0.0,74,0.00,,---,0.00,VWS V14.01,2013-01-24 03:45:00,
2013-01-23 22:50:00,29.0,21.8,30.02,SSE,148,0.0,0.0,74,0.00,,---,0.00,VWS V14.01,2013-01-24 03:50:00,
2013-01-23 22:55:00,28.9,22.0,30.02,SSE,148,0.0,0.0,75,0.00,,---,0.00,VWS V14.01,2013-01-24 03:55:00,
2013-01-23 23:00:00,28.9,21.7,30.02,SSE,148,0.0,0.0,74,0.00,,---,0.00,VWS V14.01,2013-01-24 04:00:00,
2013-01-23 23:05:00,28.9,21.0,30.02,SSE,148,0.0,0.0,72,0.00,,---,0.00,VWS V14.01,2013-01-24 04:05:00,
2013-01-23 23:10:00,28.9,20.7,30.02,SSE,148,0.0,0.0,71,0.00,,---,0.00,VWS V14.01,2013-01-24 04:10:00,
2013-01-23 23:15:00,28.8,20.6,30.01,SSE,148,0.0,0.0,71,0.00,,---,0.00,VWS V14.01,2013-01-24 04:15:00,
2013-01-23 23:21:00,28.8,20.6,30.01,SSE,148,0.0,0.0,71,0.00,,---,0.00,VWS V14.01,2013-01-24 04:21:00,
2013-01-23 23:26:00,28.6,20.4,30.01,SSE,148,0.0,0.0,71,0.00,,---,0.00,VWS V14.01,2013-01-24 04:26:00,
2013-01-23 23:31:00,28.5,21.0,30.00,SSE,148,0.0,0.0,73,0.00,,---,0.00,VWS V14.01,2013-01-24 04:31:00,
2013-01-23 23:36:00,28.3,20.8,30.00,SSE,148,0.0,0.0,73,0.00,,---,0.00,VWS V14.01,2013-01-24 04:36:00,
2013-01-23 23:41:00,28.2,21.0,30.00,SSE,148,0.0,0.0,74,0.00,,---,0.00,VWS V14.01,2013-01-24 04:41:00,
2013-01-23 23:46:00,28.2,21.0,30.00,SSE,148,0.0,0.0,74,0.00,,---,0.00,VWS V14.01,2013-01-24 04:46:00,
2013-01-23 23:51:00,28.2,20.7,30.00,SSE,148,0.0,0.0,73,0.00,,---,0.00,VWS V14.01,2013-01-24 04:51:00,
2013-01-23 23:56:00,28.3,21.1,30.00,SSE,148,0.0,0.0,74,0.00,,---,0.00,VWS V14.01,2013-01-24 04:56:00,